Lowell, ID

7:18 AM MDT on June 27, 2017 (GMT -0600)
Lowell

Weather History for KP69 - October, 2013

Change the Weather History Date:

Monday, October 7, 2013

  Actual Average Record
Temperature  
Mean Temperature 52 °F -  
Max Temperature 66 °F 61 °F 79 °F (2014)
Min Temperature 39 °F 40 °F 30 °F (2012)
Degree Days  
Heating Degree Days 12    
Growing Degree Days 2 (Base 50)    
Moisture  
Dew Point 43 °F    
Average Humidity 83    
Maximum Humidity 97    
Minimum Humidity 50    
Precipitation  
Precipitation 0.19 in - - ()
Sea Level Pressure  
Sea Level Pressure 29.99 in    
Wind  
Wind Speed 0 mph (North)    
Max Wind Speed 5 mph    
Max Gust Speed -    
Averages and records for this station are not official NWS values.
T = Trace of Precipitation, MM = Missing Value Source: NWS Daily Summary

Daily Weather History Graph

Daily Weather History Graph

Search for Another Location

Airport or City:

Trip Planner

Search our weather history database for the weather conditions in past years. The results will help you decide how hot, cold, wet, or windy it might be!

Date:

Astronomy

Oct. 07, 2013 Rise Set
Actual Time 7:48 AM MDT 7:09 PM MDT
Civil Twilight 7:18 AM MDT 7:39 PM MDT
Nautical Twilight 6:43 AM MDT 8:13 PM MDT
Astronomical Twilight 6:09 AM MDT 8:48 PM MDT
Moon 10:52 AM MDT (10/7) 8:47 PM MDT (10/7)
Length of Visible Light 12h 21m
Length of Day
11h 21m
Waxing Crescent, 9% of the Moon is Illuminated
Oct 7
Waxing Crescent
Oct 11
First Quarter
Oct 18
Full
Oct 26
Last Quarter
Nov 3
New

Hourly Weather History & Observations

Time (MDT) Temp. Dew Point Humidity Pressure Visibility Wind Dir Wind Speed Gust Speed Precip Events Conditions
12:52 AM 42.1 °F 41.0 °F 96% 30.06 in - Calm Calm - N/A   Unknown
1:52 AM 42.1 °F 41.0 °F 96% 30.05 in - Calm Calm - N/A   Unknown
2:52 AM 42.1 °F 41.0 °F 96% 30.05 in - Calm Calm - N/A   Unknown
3:52 AM 42.1 °F 39.9 °F 92% 30.04 in - Calm Calm - N/A   Unknown
4:52 AM 41.0 °F 39.9 °F 96% 30.05 in - Calm Calm - N/A   Unknown
5:52 AM 41.0 °F 39.0 °F 93% 30.05 in - Calm Calm - N/A   Unknown
6:52 AM 39.9 °F 39.0 °F 97% 30.06 in - Calm Calm - N/A   Unknown
7:52 AM 39.9 °F 37.9 °F 93% 30.06 in - Calm Calm - N/A   Unknown
8:52 AM 39.9 °F 37.9 °F 93% 30.06 in - Calm Calm - N/A   Unknown
9:52 AM 44.1 °F 39.0 °F 82% 30.05 in - Calm Calm - N/A   Unknown
10:52 AM 51.1 °F 39.9 °F 66% 30.01 in - Calm Calm - N/A   Unknown
11:52 AM 53.1 °F 39.9 °F 61% 29.98 in - Calm Calm - N/A   Unknown
12:52 PM 55.9 °F 42.1 °F 60% 29.94 in - North 3.5 mph - N/A   Unknown
1:52 PM 61.0 °F 44.1 °F 54% 29.88 in - Calm Calm - N/A   Unknown
2:52 PM 66.0 °F 46.9 °F 50% 29.85 in - Calm Calm - N/A   Unknown
3:52 PM 59.0 °F 48.9 °F 69% 29.86 in - North 4.6 mph - N/A   Unknown
4:52 PM 57.9 °F 48.9 °F 72% 29.89 in - Calm Calm - N/A   Unknown
5:52 PM 55.9 °F 48.9 °F 77% 29.89 in - Calm Calm - N/A   Unknown
6:52 PM 53.1 °F 48.0 °F 83% 29.92 in - Calm Calm - N/A   Unknown
7:52 PM 52.0 °F 46.9 °F 83% 29.96 in - Calm Calm - N/A   Unknown
8:52 PM 50.0 °F 48.0 °F 93% 30.02 in - Calm Calm - 0.05 in   Unknown
9:52 PM 48.9 °F 46.9 °F 93% 30.04 in - Calm Calm - 0.03 in   Unknown
10:52 PM 48.9 °F 46.9 °F 93% 30.03 in - Calm Calm - 0.09 in   Unknown
11:52 PM 48.0 °F 46.9 °F 96% 30.02 in - Calm Calm - 0.02 in   Unknown